エンケ彗星

2P/Encke (1997)

English version
Home page
Updated on September 28, 2003

---------------------------------------------------------------------

・ プロフィール

・ 軌道要素

   The following improved orbital elements by Kenji Muraoka, 
  are from 250 observations 1982 to 1998, including 9 Planets, 
  Moon and 5 minor planets perturbations and non-gravitational 
  effect of style II.  The mean residual is +/- 0.83 arc seconds.

      Epoch  =  1997 June  1.0  TT       JDT = 2450600.5
          T  =  1997 May  23.59866       +/- 0.00020 (m.e.) TT
       Peri. =  186.27254                +/- 0.00007
       Node  =  334.72093                +/- 0.00006   (2000.0)
       Incl. =   11.92936                +/- 0.00001
          q  =    0.3313956              +/- 0.0000002 AU
          e  =    0.8500137              +/- 0.0000001
          a  =    2.2095057              +/- 0.0000006 AU
          n  =    0.30009682             +/- 0.00000012
          P  =    3.284                  +/- 0.0000014  years
         A1  =   -0.009                  +/- 0.003
         A2  =   -0.00132                +/- 0.00002

・ 星図

・ 1996年 7月 6日〜1997年 6月26日
・ 1997年 6月11日〜1997年 7月16日
・ 1997年 7月11日〜1998年 3月18日

・ 光度変化

        m1 = 15.0 + 5 logΔ +  5.0 log r  [    ,-100]  (              〜1997年 2月12日)
        m1 =  9.8 + 5 logΔ + 25   log r  [-100, -45]  (1997年 2月12日〜1997年 4月 8日)
        m1 = 10.3 + 5 logΔ +  7.0 log r  [ -45,  20]  (1997年 4月 8日〜1997年 6月12日)
        m1 = 12.3 + 5 logΔ + 15.7 log r  [  20, 100]  (1997年 6月12日〜1997年 8月31日)
        m1 = 15.0 + 5 logΔ +  5.0 log r  [ 100,    ]  (1997年 8月31日〜              )

---------------------------------------------------------------------

軌道要素は村岡健治氏の計算によるものです。
星図は StellaNavigator Ver.2.0 for Windows (アストロアーツ 編著 / アスキー出版局刊) で作成したものです。
光度グラフはComet for Windowsで作成したものです。

---------------------------------------------------------------------

Copyright(C) Seiichi Yoshida (comet@aerith.net). All rights reserved.